This is the latest recevied weather packets stored in our database for station/object DK8DX-13. If no packets are shown the sender has not sent any weather packets the latest 10 day(s).
| Time | Temp. | Humidity | Pressure | Rain* | Wind** | Luminosity | Snow |
|---|---|---|---|---|---|---|---|
| 1777125732 | 17.78° C | 34% | 1018.9 hPa | 0 mm | - | - | - |
| 1777125467 | 17.78° C | 34% | 1019 hPa | 0 mm | - | - | - |
| 1777125187 | 18.33° C | 35% | 1019.1 hPa | 0 mm | - | - | - |
| 1777124907 | 17.78° C | 37% | 1019 hPa | 0 mm | - | - | - |
| 1777124632 | 18.33° C | 36% | 1019.1 hPa | 0 mm | - | - | - |
| 1777124362 | 17.78° C | 36% | 1019.2 hPa | 0 mm | - | - | - |
| 1777124104 | 17.78° C | 36% | 1019.3 hPa | 0 mm | - | - | - |
| 1777123837 | 17.78° C | 37% | 1019.3 hPa | 0 mm | - | - | - |
| 1777123562 | 17.78° C | 37% | 1019.3 hPa | 0 mm | - | - | - |
| 1777123267 | 17.78° C | 37% | 1019.2 hPa | 0 mm | - | - | - |
| 1777123001 | 17.78° C | 41% | 1019.2 hPa | 0 mm | - | - | - |
| 1777122727 | 17.22° C | 40% | 1019.4 hPa | 0 mm | - | - | - |
| 1777122466 | 17.22° C | 41% | 1019.4 hPa | 0 mm | - | - | - |
| 1777122202 | 17.22° C | 41% | 1019.6 hPa | 0 mm | - | - | - |
| 1777121917 | 17.22° C | 42% | 1019.5 hPa | 0 mm | - | - | - |
| 1777121672 | 16.67° C | 44% | 1019.6 hPa | 0 mm | - | - | - |
| 1777121377 | 16.67° C | 42% | 1019.6 hPa | 0 mm | - | - | - |
| 1777121087 | 17.22° C | 42% | 1019.6 hPa | 0 mm | - | - | - |
| 1777120797 | 17.22° C | 43% | 1019.8 hPa | 0 mm | - | - | - |
| 1777120522 | 16.67° C | 46% | 1019.8 hPa | 0 mm | - | - | - |
| 1777120262 | 16.67° C | 46% | 1019.8 hPa | 0 mm | - | - | - |
| 1777119972 | 16.11° C | 47% | 1019.9 hPa | 0 mm | - | - | - |
| 1777119702 | 16.11° C | 47% | 1019.9 hPa | 0 mm | - | - | - |
| 1777119452 | 16.11° C | 49% | 1020 hPa | 0 mm | - | - | - |
| 1777119182 | 15.56° C | 48% | 1020.1 hPa | 0 mm | - | - | - |
* Rain latest hour (hover to see other rain measurements)
** Current wind speed in m/s (hover to see current wind gust speed)